Regional Weather Roundup
Issued by NWS Sterling, VA

Home | Current Version | Previous Version | Text Only | Print | Product List | Glossary Off
Versions: 1 2 3 4 5 6 7 8 9 10 11 12 13 14 15 16 17 18 19 20 21 22 23 24 25 26 27 28 29 30 31 32 33 34 35 36 37 38 39 40 41 42 43 44 45 46 47 48 49 50

979
ASUS41 KLWX 302310
RWRLWX

REGIONAL WEATHER ROUNDUP
NATIONAL WEATHER SERVICE BALTIMORE MD/WASHINGTON DC
700 PM EDT MON MAY 30 2016

Note: "FAIR" indicates few or no clouds below 12,000 feet
with no significant weather and/or obstructions to visibility.
 TC=TEMPERATURE CELSIUS

 * =Non NWS site. Station does not report precipitation (e.g. rain,
    snow, etc.), thunder, or fog.

DCZ001-MDZ009-015-VAZ040>042-051-053>054-310000-
WASHINGTON METRO

CITY           SKY/WX    TMP DP  RH WIND       PRES   REMARKS
WASHINGTON NAT PTSUNNY   75  71  87 S10       29.95S
DULLES         PTSUNNY   79  68  69 SE8       29.94S
ANDREWS AFB    CLOUDY    72  70  93 S7        29.94F
FT BELVOIR     FAIR      75  69  82 SE8       29.94S
QUANTICO       PTSUNNY   75  71  87 SE9       29.95S
COLLEGE PARK*  FAIR      73  70  88 SE5       29.94S
LEESBURG*      FAIR      81  72  74 SE8G17    29.95R
MANASSAS*      SUNNY     79  70  73 S8        29.94S

$$

MDZ006>007-011-014-310000-
BALTIMORE METRO

CITY           SKY/WX    TMP DP  RH WIND       PRES   REMARKS
BWI AIRPORT    CLOUDY    73  68  84 S3        29.94F
MD SCIENCE CTR   N/A     76  67  73 MISG      29.94S
MARTIN STATE   MOSUNNY   73  72  94 SE8       29.96F
ANNAPOLIS      CLOUDY    71  68  90 S8        29.94F
FORT MEADE*    CLOUDY    72  68  88 CALM      29.98R

$$

MDZ012-015-019>023-310000-
MARYLAND EASTERN SHORE

CITY           SKY/WX    TMP DP  RH WIND       PRES   REMARKS
OCEAN CITY     RAIN      67  67 100 CALM      29.98S FOG
SALISBURY      LGT RAIN  68  67  96 SE8       29.98S
BAY BRIDGE AP* CLOUDY    72  68  88 S9        29.95S
CAMBRIDGE*       N/A     68  66  94 S6        29.96F
EASTON*        CLOUDY    73  73 100 S7        30.00S

$$

MDZ017>025-310000-
SOUTHERN MARYLAND

CITY           SKY/WX    TMP DP  RH WIND       PRES   REMARKS
PATUXENT RIVER CLOUDY    68  66  93 SE13      29.96F
ST INIGOES     LGT RAIN  70  69  97 SE7       29.96F
LEONARDTOWN*   CLOUDY    70  66  88 CALM      29.98S

$$

MDZ003>005-310000-
NORTH CENTRAL MARYLAND

CITY           SKY/WX    TMP DP  RH WIND       PRES   REMARKS
FREDERICK*     SUNNY     82  72  69 S6        29.95
HAGERSTOWN APT CLOUDY    81  63  54 VRB3      29.93S
WESTMINSTER*   PTSUNNY   81  77  89 SE7       29.95S

$$

MDZ501>502-310000-
WESTERN MARYLAND

CITY           SKY/WX    TMP DP  RH WIND       PRES   REMARKS
OAKLAND*       CLOUDY    70  59  68 N6        30.06R
CUMBERLAND*    CLOUDY    73  66  78 S7        30.01R

$$

VAZ025>031-310000-
SHENANDOAH VALLEY

CITY           SKY/WX    TMP DP  RH WIND       PRES   REMARKS
WINCHESTER*    FAIR      81  64  57 SE3       29.95R
FRONT ROYAL*   FAIR      81  66  61 CALM      29.93R
LURAY*         FAIR      82  64  54 CALM      29.94S
NEW MARKET*    FAIR      74  67  78 CALM      29.93S
STAUNTON*      FAIR      76  65  68 SE3       29.99R
WAYNESBORO*    MOCLDY    77  63  61 SE6       29.98S

$$

WVZ021-048>050-054>055-310000-
EASTERN WEST VIRGINIA PANHANDLE

CITY           SKY/WX    TMP DP  RH WIND       PRES   REMARKS
MARTINSBURG    PTSUNNY   79  63  57 NW5       29.93R
PETERSBURG*    CLOUDY    81  68  64 S6        29.96R

$$

VAZ036>039-050-310000-
CENTRAL FOOTHILLS

CITY           SKY/WX    TMP DP  RH WIND       PRES   REMARKS
CHARLOTTESVILL FAIR      80  68  66 S6        29.95S
CULPEPER*      FAIR      79  72  79 CALM      29.95S
ORANGE*        FAIR      77  70  78 NE5       29.96S
GORDONSVILLE*  FAIR      77  71  81 SE5       29.95R
WARRENTON*     FAIR      79  65  62 S5        29.94S

$$

VAZ055>057-310000-
NORTH AND CENTRAL PIEDMONT

CITY           SKY/WX    TMP DP  RH WIND       PRES   REMARKS
FREDERICKSBRG* FAIR      76  71  84 SE6       29.94S
STAFFORD*      FAIR      75  70  84 SE5       29.99R

$$

NCZ024-NYZ072-PAZ021-071-VAZ022-071-310000-
OTHER REGIONAL OBSERVATIONS

CITY           SKY/WX    TMP DP  RH WIND       PRES   REMARKS
NEW YORK CITY  CLOUDY    76  67  73 MISG      29.95S
PHILADELPHIA   CLOUDY    74  68  81 S8        29.96S
PITTSBURGH     MOSUNNY   82  54  37 NW12      29.97S
ROANOKE        FAIR      79  64  60 SE8       29.98S
RICHMOND       CLOUDY    71  69  93 SE6       29.96S
RALEIGH        CLOUDY    74  71  91 NE5       29.94S

$$

ANZ530>537-310000-
MARINE OBSERVATIONS

STATION/POSITION TIME  TEMP    WIND        PRES
                       AIR SEA DIR/SP/G
                 (UTC) (F)     (DEG/KT/KT) (MB)
THOMAS PT LIGHT  2300   70 69  160/ 18/ 19 1014.9F
BALT KEY BRIDGE  2200   74                   N/A
COVE POINT       2200   67                   N/A
LEWISETTA        2200   71 72                N/A
SOLOMONS ISLAND  2200   71 69                N/A
PINEY POINT      2200          160/  9/  9   N/A

$$





USA.gov is the U.S. government's official web portal to all federal, state and local government web resources and services.